ATLAS 5 CENTAUR DEB, 44038

Orbit data source: Space-Track

ATLAS 5 CENTAUR DEB, 44038 is space debris in HEO originally from a launch on Wed, 17 Sep 2014 UTC launched from the Air Force Eastern Test Range (AFETR). Debris objects in space refer to the collection of defunct objects orbiting the Earth. Examples of debris include non-operational satellites, rocket bodies, and fragments generated from explosions, collisions, or faulty payload assembly.

Loading next visibility...
Identifier
44038, 2014-055BY
Orbit
HEO
Country
Flag of USUS
Related business
Flag of USUnited Launch Alliance/Lockheed Martin (US)
Manufacturer
Unknown
Mission
Spacecraft
Bus & Motor
Unknown
Mass
Unknown
Launch date (UTC)
2014-09-17 (12 years ago)
Launch vehicle
Unknown
Launch site
Air Force Eastern Test Range (AFETR)
Object type
Payload
Rocket body
Debris
Shape & HBR
Unknown shape, 1.1 m
Radar Cross Section
Medium (>0.1 m² and <1 m²)

Expand to show TLE details & history
Last TLE update: 2 weeks ago

TLE from 2 weeks ago
0 ATLAS 5 CENTAUR DEB
1 44038U 14055BY  26147.42346881 -.00000041  00000-0  00000-0 0  9996
2 44038  19.0387 191.8280 4651729  80.9032 327.2411  1.76611585 48905
Epoch: 2026-05-27T10:09Z
TLE epoch observation values (Epoch: 2026-05-27T10:09:47.705Z)
Latitude
Longitude
154.50207°
Altitude
14,680.832 km
Speed
4.906 km/s
True Right ascension
12h 47m 44s
True Declination
0° 00' 00"
Sunlit
Object was in daylight at epoch
Visualization orbit readout
Latitude
Unknown
Longitude
Unknown
Altitude
Unknown
Speed
Unknown
Apparent Right ascension
Unknown
Apparent Declination
Unknown
Sunlit
N/A
Visualization observer readout
Local Sidereal Time
18:58:31
Azimuth
Unknown
Elevation
Unknown
Doppler factor
Unknown
Orbital elements
Apogee altitude
35,983.485 km
Perigee altitude
9,084.982 km
Semi-major axis
28,912.371 km
Eccentricity
0.46517
Inclination
19.0387°
RAAN
191.828°
Arg. of periapsis
80.9032°
True anomaly
279.17892°
Mean anomaly
327.2411°
Eccentric anomaly
305.55884°
Mean motion
0.44149 °/min
Orbital period
815.43 mins
BSTAR
0
Loading maneuver chart data...
Computing Atmospheric mass density...

Documentation

Showing up to 5 results
|